Lid_Strength_Index
14 14 15 15 15 16 17 17 16 17 17 18 18 18 19 19 19 20 20 20 21 21 20 20 20 20 21 21 20 20 21 21 23 21 20 19 20 20 19 19 18 19 18
13 14 15 15 16 16 16 17 16 17 17 17 18 18 18 19 19 20 21 21 21 21 21 21 21 20 22 21 21 22 21 21 22 23 21 20 20 20 19 19 18 18 18
15 15 15 15 16 16 16 16 17 17 18 18 18 19 19 19 19 19 20 21 21 21 21 21 22 22 22 22 22 22 21 20 20 21 21 19 19 19 19 18 18 18 17
15 15 15 16 16 16 16 16 17 17 18 18 18 18 19 19 20 20 20 21 21 21 21 21 21 21 21 22 21 20 20 20 20 21 21 20 19 17 17 18 18 17 17
14 14 15 15 15 16 16 17 17 17 17 18 19 19 19 20 20 21 21 21 21 22 22 21 21 21 19 18 20 20 20 21 20 20 20 19 18 18 18 17 18 18 18
15 15 15 16 17 16 17 17 18 18 18 18 19 19 20 20 17 17 19 21 21 21 22 21 21 20 18 16 15 15 17 21 21 20 19 18 18 17 17 18 18 19 20
14 14 15 16 16 17 17 18 18 18 18 19 19 20 20 19 16 15 17 20 21 21 21 20 19 18 18 18 16 15 15 14 14 16 19 18 18 17 17 18 17 17 18
14 15 17 17 16 17 18 18 18 18 19 19 20 19 19 20 15 15 17 20 20 20 20 19 19 19 18 18 19 18 18 17 17 16 17 16 16 15 15 15 16 18 18
15 16 18 18 17 19 18 19 18 18 19 19 19 19 19 19 15 15 17 20 20 19 18 18 18 18 17 16 18 19 18 17 15 13 13 13 13 13 13 17 20 21 22
15 15 17 18 17 18 18 19 18 18 18 18 19 19 19 20 15 15 16 20 20 20 19 19 17 18 16 16 17 20 20 18 17 19 17 16 16 17 16 17 19 22 22
17 18 19 20 19 19 19 19 18 18 19 19 20 20 19 20 16 14 14 18 19 20 20 19 18 16 16 15 15 17 18 16 18 18 20 20 19 19 18 18 18 19 21
18 19 20 20 19 20 19 20 21 20 20 21 20 21 21 20 17 14 14 16 17 20 19 19 18 16 16 15 15 16 15 16 23 23 22 22 20 20 18 18 17 17 17
15 17 18 18 18 20 19 19 21 21 20 21 21 22 22 21 18 14 13 15 16 19 18 18 17 16 16 17 17 18 18 21 23 25 23 21 19 18 17 18 17 17 17
15 15 17 18 19 19 19 19 19 21 21 21 21 22 22 22 21 17 16 15 16 17 17 17 17 18 19 20 20 20 21 21 21 22 21 20 18 19 19 18 19 19 19
18 16 17 18 18 19 19 19 19 19 18 20 20 20 22 23 21 18 16 16 16 18 21 22 23 23 23 23 23 23 22 22 22 21 21 20 20 19 19 19 19 19 21
21 18 15 18 18 19 20 20 16 16 16 15 16 18 19 18 17 16 15 14 15 16 23 24 24 23 23 24 24 24 23 23 22 21 21 21 21 20 20 20 19 20 21
22 20 16 17 18 20 20 20 21 18 16 15 15 16 16 17 16 16 15 15 14 17 24 24 24 25 25 24 24 24 24 23 22 22 21 21 21 21 21 21 21 20 20
21 20 18 15 17 19 19 20 21 20 20 20 15 15 14 15 15 15 14 15 17 22 25 25 26 26 25 25 25 25 24 24 23 23 23 23 23 23 22 22 21 21 20
20 20 19 16 16 18 19 20 21 20 20 20 18 15 16 14 13 13 14 18 25 26 26 28 27 27 27 27 27 27 27 27 26 26 26 25 23 23 22 21 21 20 19
20 19 18 17 18 18 19 21 21 21 20 20 19 18 17 15 15 15 20 22 24 26 27 27 28 29 29 30 30 30 30 30 28 28 26 24 24 22 22 21 20 20 20
20 18 17 15 17 18 18 19 19 19 19 18 17 16 14 14 16 23 24 23 24 26 27 27 29 30 31 32 33 33 34 29 28 29 26 25 24 23 21 21 19 19 19
17 16 15 16 17 17 17 17 17 16 16 17 17 14 11 20 22 23 24 25 26 26 27 28 30 31 31 32 32 34 34 32 30 30 27 24 24 23 21 19 19 20 20
17 17 17 18 18 17 17 17 17 16 18 18 17 18 21 22 23 25 26 27 28 29 31 34 32 32 32 33 33 33 33 31 30 31 27 26 24 22 20 19 20 21 21
20 19 19 19 19 19 19 19 19 20 20 18 21 22 23 24 25 26 28 28 29 30 32 32 32 31 33 33 33 33 32 31 30 29 27 26 24 21 19 20 21 21 21
22 21 21 21 21 21 21 21 21 21 21 23 24 25 26 26 27 28 28 29 30 30 30 30 30 33 32 31 32 32 32 28 28 27 25 22 19 19 20 21 21 21 21
23 23 23 23 23 23 23 23 23 23 24 25 25 26 27 27 28 28 29 28 28 28 28 28 30 30 30 31 31 29 27 23 22 20 17 16 20 19 20 22 22 21 21